DW5450 Weather Reports


time (UTC)temp
F
wind
direction
speed
knots
gust
knots
rain 1hr
in
rain 24hr
in
rain mn
in
humidity
%
barometer
mb
20260902034501 86 194 0.0 4.3 0.00 0.00 0.00 77 1013.0
20260902033100 86 180 1.7 4.3 0.00 0.00 0.00 77 1012.8
20260902031612 86 172 1.7 5.2 0.00 0.00 0.00 76 1012.4
20260902030059 86 174 0.9 4.3 0.00 0.00 0.00 76 1012.2
20260902024605 86 191 0.9 4.3 0.00 0.00 0.00 76 1012.0
20260902023104 86 175 1.7 7.8 0.00 0.00 0.00 76 1011.6
20260902021611 86 181 3.5 6.1 0.00 0.00 0.00 76 1011.4
20260902020112 87 159 1.7 9.6 0.00 0.00 0.00 75 1011.2
20260902014557 87 210 2.6 6.1 0.00 0.00 0.00 75 1011.3
20260902013057 87 190 1.7 6.1 0.00 0.00 0.00 74 1011.2
20260902011556 87 193 2.6 6.1 0.00 0.00 0.00 73 1011.1
20260902010055 88 130 1.7 7.0 0.00 0.00 0.00 71 1010.9
20260902004555 88 109 1.7 6.1 0.00 0.00 0.00 70 1010.8
20260902003055 88 189 1.7 7.0 0.00 0.00 0.00 67 1010.6
20260902001556 89 159 2.6 7.8 0.00 0.00 0.00 67 1010.5
20260902000054 90 164 4.3 7.8 0.00 0.00 0.00 66 1010.3
20260901234556 90 113 2.6 9.6 0.00 0.00 0.00 67 1010.3
20260901233052 90 170 2.6 8.7 0.00 0.00 0.00 67 1010.2
20260901231555 90 162 1.7 8.7 0.00 0.00 0.00 67 1010.0
20260901230103 90 148 2.6 10.4 0.00 0.00 0.00 68 1010.0
20260901224552 90 173 3.5 7.8 0.00 0.00 0.00 68 1009.9
20260901223102 90 101 2.6 9.6 0.00 0.00 0.00 68 1010.0
20260901221549 90 130 2.6 9.6 0.00 0.00 0.00 67 1010.2
20260901220106 90 109 3.5 13.0 0.00 0.00 0.00 70 1010.3
20260901214547 91 138 2.6 9.6 0.00 0.07 0.00 70 1010.3
20260901213049 90 115 4.3 9.6 0.00 0.07 0.00 71 1010.4
20260901211543 91 164 2.6 9.6 0.00 0.07 0.00 72 1010.6
20260901210040 90 127 2.6 9.6 0.00 0.07 0.00 69 1010.9
20260901204541 90 204 4.3 10.4 0.00 0.33 0.00 72 1011.0
20260901203039 90 194 4.3 12.2 0.00 0.33 0.00 71 1011.1
20260901201545 90 201 3.5 9.6 0.00 0.33 0.00 73 1011.3
20260901200035 90 119 4.3 11.3 0.00 0.33 0.00 71 1011.4
20260901194537 90 104 3.5 9.6 0.00 0.33 0.00 73 1011.6
20260901193035 90 150 3.5 7.8 0.00 0.33 0.00 73 1011.9
20260901191538 91 144 2.6 8.7 0.00 0.33 0.00 73 1012.1
20260901190031 90 134 3.5 12.2 0.00 0.33 0.00 74 1012.4
20260901184550 90 163 2.6 7.0 0.00 0.33 0.00 75 1012.6
20260901183028 89 153 4.3 9.6 0.00 0.33 0.00 75 1012.8
20260901181545 89 213 4.3 10.4 0.00 0.33 0.00 75 1012.7
20260901180025 89 162 2.6 9.6 0.00 0.33 0.00 76 1012.8
20260901174545 88 113 2.6 8.7 0.00 0.33 0.00 76 1013.0
20260901173023 88 123 2.6 7.0 0.00 0.33 0.00 76 1012.8
20260901171531 88 119 1.7 7.8 0.00 0.33 0.00 74 1012.8
20260901170023 89 147 3.5 7.0 0.00 0.33 0.00 72 1012.7
20260901164524 89 157 0.9 6.1 0.00 0.33 0.00 75 1012.8
20260901163021 88 155 0.9 2.6 0.00 0.33 0.00 77 1012.9
20260901161514 85 311 0.0 0.9 0.00 0.33 0.00 79 1012.8
20260901160013 82 311 0.0 0.9 0.00 0.33 0.00 80 1012.9
20260901154505 81 311 0.0 1.7 0.00 0.33 0.00 82 1012.9
20260901153114 80 311 0.0 1.7 0.00 0.33 0.00 83 1012.9
20260901151604 79 311 0.0 3.5 0.00 0.33 0.00 84 1012.7
20260901150058 78 314 0.9 4.3 0.00 0.33 0.00 85 1012.5
20260901144555 78 313 0.0 2.6 0.00 0.33 0.00 85 1012.5
20260901143118 77 307 1.7 4.3 0.00 0.33 0.00 86 1012.3
20260901141554 76 313 1.7 4.3 0.00 0.33 0.00 87 1012.2
20260901140055 76 309 0.9 3.5 0.00 0.33 0.00 87 1012.0
20260901134554 75 308 0.9 2.6 0.00 0.33 0.00 87 1011.8
20260901133054 76 307 0.9 3.5 0.00 0.33 0.00 87 1011.8
20260901131554 76 312 0.0 2.6 0.00 0.33 0.00 87 1011.7
20260901130050 75 313 0.0 4.3 0.00 0.33 0.00 87 1011.7
20260901124550 75 319 0.0 2.6 0.00 0.33 0.00 87 1011.7
20260901123101 75 310 0.0 3.5 0.00 0.33 0.00 87 1011.5
20260901121549 76 318 0.0 3.5 0.00 0.33 0.00 87 1011.6
20260901120056 76 320 0.0 1.7 0.00 0.33 0.00 87 1011.4
20260901114549 76 318 0.0 1.7 0.00 0.33 0.00 87 1011.3
20260901113050 76 317 0.0 1.7 0.00 0.33 0.00 87 1011.3
20260901111550 76 307 0.0 2.6 0.00 0.33 0.00 87 1011.2
20260901110045 76 304 0.9 2.6 0.00 0.33 0.00 87 1011.2
20260901104547 76 304 0.0 2.6 0.00 0.33 0.00 87 1011.2
20260901103042 77 303 0.0 0.9 0.00 0.33 0.00 87 1011.4
20260901101541 77 303 0.0 0.0 0.00 0.33 0.00 86 1011.2
20260901100046 77 303 0.0 0.9 0.00 0.33 0.00 86 1011.5
20260901094538 77 303 0.0 0.0 0.00 0.33 0.00 86 1011.6
20260901093037 77 311 0.9 3.5 0.00 0.33 0.00 86 1011.7
20260901091536 77 312 0.9 1.7 0.00 0.33 0.00 86 1011.8
20260901090035 77 312 0.9 3.5 0.00 0.33 0.00 86 1011.7
20260901084536 77 312 0.0 2.6 0.00 0.33 0.00 86 1011.7
20260901083033 77 312 0.0 1.7 0.00 0.33 0.00 86 1011.8
20260901081533 77 310 0.9 2.6 0.00 0.33 0.00 86 1011.9
20260901080032 78 310 0.0 0.9 0.00 0.33 0.00 86 1012.2
20260901074528 78 310 0.0 0.0 0.00 0.33 0.00 86 1012.3
20260901073030 78 310 0.0 2.6 0.00 0.33 0.00 86 1012.4
20260901071526 78 310 0.9 3.5 0.00 0.33 0.00 86 1012.4
20260901070023 78 310 0.0 2.6 0.00 0.33 0.00 86 1012.5
20260901064525 78 312 0.0 4.3 0.00 0.33 0.33 86 1012.5
20260901063032 78 311 0.0 3.5 0.00 0.33 0.33 86 1012.5
20260901061522 78 313 0.9 2.6 0.00 0.33 0.33 86 1012.5
20260901060021 78 317 0.0 0.9 0.00 0.33 0.33 86 1012.4
20260901054521 78 319 0.9 1.7 0.00 0.33 0.33 86 1012.3
20260901053024 79 319 0.0 1.7 0.00 0.33 0.33 86 1012.3
20260901051532 79 319 0.0 1.7 0.00 0.33 0.33 86 1012.3
20260901050020 79 319 0.0 1.7 0.00 0.33 0.33 86 1012.2
20260901044519 79 316 0.0 0.9 0.00 0.33 0.33 86 1012.3
20260901043030 80 315 0.0 2.6 0.00 0.33 0.33 86 1012.2
20260901041519 79 315 0.0 0.9 0.00 0.33 0.33 86 1012.1
20260901040023 79 313 0.0 2.6 0.00 0.33 0.33 86 1012.0